This demonstration page uses our WeatherBlox Daily Observations layout. Learn more.

Left ArrowRight Arrow

39.08367, -84.50855

Hourly Observations for December 22, 2019

Temp ( °F °C ) Dew Point ( °F °C ) Humidity (%) Winds ( mph kmh ) Pressure ( in mb ) Visibility ( mi km ) Precip ( " mm )
12:53 am 00:53 Clear with Mist and Fog 27 -2.8 26 -3.3 96 96 N N/A 30.41 1030 5 8 N/A
1:53 am 01:53 Clear with Mist and Fog 26 -3.3 24 -4.4 92 92 N N/A 30.41 1030 4 6 N/A
2:31 am 02:31 Clear with Mist and Fog 25 -3.9 24 -4.4 96 96 N N/A 30.45 1031 3 4 N/A
2:41 am 02:41 Clear with Mist and Fog 23 -5 23 -5 100 100 N N/A 30.45 1031 1 1 N/A
2:53 am 02:53 Clear with Mist and Fog 26 -3.3 25 -3.9 96 96 N N/A 30.41 1030 3 5 N/A
3:16 am 03:16 Clear with Mist and Fog 24 -4.4 23 -5 96 96 N N/A 30.44 1031 2 2 N/A
3:25 am 03:25 Clear with Freezing Fog 23 -5 23 -5 100 100 N N/A 30.45 1031 1 1 N/A
3:35 am 03:35 Clear with Mist and Fog 24 -4.4 23 -5 96 96 N N/A 30.44 1031 1 2 N/A
3:47 am 03:47 Clear with Mist and Fog 27 -3 25 -4 93 93 N N/A 30.43 1031 3 5 N/A
3:53 am 03:53 Clear with Mist and Fog 26 -3.3 25 -3.9 96 96 N N/A 30.41 1030 4 6 N/A
3:59 am 03:59 Clear with Mist and Fog 24 -4.4 23 -5 96 96 N N/A 30.44 1031 2 3 N/A
4:15 am 04:15 Clear with Mist and Fog 24 -4.4 23 -5 96 96 N N/A 30.44 1031 1 1 N/A
4:22 am 04:22 Clear with Light Snow 24 -4.4 23 -5 96 96 N N/A 30.44 1031 2 3 0.00 0.00
4:30 am 04:30 Clear with Light Snow 25 -3.9 24 -4.4 96 96 NE 5 7 30.43 1030 4 6 0.00 0.00
4:53 am 04:53 Clear with Light Snow 25 -3.9 24 -4.4 96 96 NE 3 6 30.39 1029 5 8 0.00 0.00
5:53 am 05:53 Clear with Mist and Fog 25 -3.9 24 -4.4 96 96 N N/A 30.40 1030 6 10 0.00 0.00
6:19 am 06:19 Clear with Mist and Fog 24 -4.4 22 -5.6 91 91 N N/A 30.44 1031 2 3 N/A
6:29 am 06:29 Clear with Mist and Fog 24 -4.4 23 -5 96 96 NE 3 6 30.44 1031 3 5 N/A
6:53 am 06:53 Clear with Mist and Fog 24 -4.4 23 -5 96 96 N N/A 30.41 1030 5 8 N/A
7:53 am 07:53 Clear 22 -5.6 21 -6.1 96 96 N N/A 30.40 1030 7 11 N/A
8:53 am 08:53 Sunny 26 -3.3 24 -4.4 92 92 NE 3 6 30.41 1030 7 11 0.00 0.00
9:53 am 09:53 Sunny 31 -0.6 30 -1.1 96 96 N N/A 30.42 1030 8 13 N/A
10:53 am 10:53 Sunny 38 3.3 33 0.6 83 83 N N/A 30.41 1030 10 16 N/A
11:53 am 11:53 Sunny 44 6.7 34 1.1 68 68 N N/A 30.38 1029 10 16 N/A
12:53 pm 12:53 Sunny 49 9.4 34 1.1 56 56 SW 3 6 30.35 1028 10 16 N/A
1:53 pm 13:53 Sunny 51 10.6 33 0.6 50 50 N N/A 30.30 1026 10 16 N/A
2:53 pm 14:53 Sunny 53 11.7 33 0.6 47 47 N N/A 30.29 1026 10 16 N/A
3:53 pm 15:53 Sunny 53 11.7 34 1.1 48 48 N N/A 30.28 1026 10 16 N/A
4:53 pm 16:53 Sunny 49 9.4 34 1.1 56 56 S 5 7 30.29 1026 10 16 N/A
5:53 pm 17:53 Clear 42 5.6 33 0.6 71 71 N N/A 30.29 1026 10 16 N/A
6:53 pm 18:53 Clear 37 2.8 33 0.6 86 86 SSE 3 6 30.29 1026 10 16 N/A
7:53 pm 19:53 Clear 35 1.7 31 -0.6 85 85 N N/A 30.28 1026 10 16 N/A
8:53 pm 20:53 Clear 33 0.6 30 -1.1 89 89 ENE 3 6 30.27 1025 10 16 N/A
9:53 pm 21:53 Clear 31 -0.6 30 -1.1 96 96 N N/A 30.26 1025 10 16 N/A
10:53 pm 22:53 Clear 30 -1.1 28 -2.2 92 92 N N/A 30.25 1024 10 16 N/A
11:53 pm 23:53 Clear 30 -1.1 28 -2.2 92 92 N N/A 30.24 1024 9 14 N/A

Powered by AerisWeather